Location: Arborea
(39.7744°N, 8.5819°E)
Time: 08:04:06
(UTC+00:00)

DX 1 - Visible Passes

Search period start: 26 May 2024 00:00
Search period end: 05 June 2024 00:00
Orbit: 609 x 619 km, 98.3° (Epoch: 25 May)

Date Brightness Start Highest point End Pass type
(mag) Time Alt. Az. Time Alt. Az. Time Alt. Az.
26 May ? 00:10:04 10° N 00:13:05 28° NW 00:13:05 28° NW visible
26 May ? 22:49:33 10° NNE 22:51:43 24° NE 22:51:43 24° NE visible
27 May ? 00:25:57 10° NNW 00:28:46 21° WNW 00:28:46 21° WNW visible
27 May ? 23:04:47 10° NNE 23:07:24 33° NE 23:07:24 33° NE visible
28 May ? 00:42:04 10° NNW 00:44:27 15° WNW 00:44:27 15° WNW visible
28 May ? 23:20:07 10° NNE 23:23:04 42° NNE 23:23:04 42° NNE visible
29 May ? 00:59:15 10° NW 00:59:43 10° WNW 01:00:06 10° WNW visible
29 May ? 23:35:34 10° N 23:38:43 48° N 23:38:43 48° N visible
30 May ? 22:16:54 10° ENE 22:17:20 11° ENE 22:17:20 11° ENE visible
30 May ? 23:51:07 10° N 23:54:22 42° NW 23:54:22 42° NW visible
31 May ? 22:31:26 10° NE 22:32:58 16° ENE 22:32:58 16° ENE visible
01 Jun ? 00:06:45 10° N 00:10:01 32° NW 00:10:01 32° NW visible
01 Jun ? 22:46:23 10° NE 22:48:37 23° ENE 22:48:37 23° ENE visible
02 Jun ? 00:22:31 10° NNW 00:25:39 23° WNW 00:25:39 23° WNW visible
02 Jun ? 23:01:31 10° NNE 23:04:14 32° NE 23:04:14 32° NE visible
03 Jun ? 00:38:30 10° NNW 00:41:11 16° WNW 00:41:17 16° WNW visible
03 Jun ? 23:16:47 10° NNE 23:19:52 44° NE 23:19:52 44° NE visible
04 Jun ? 00:55:01 10° NW 00:56:25 11° WNW 00:56:54 11° WNW visible
04 Jun ? 23:32:10 10° NNE 23:35:28 53° N 23:35:28 53° N visible
